Regional Weather Roundup
Issued by NWS

Home | Current Version | Previous Version | Graphics & Text | Print | Product List | Glossary On
Versions: 1 2 3 4 5 6 7 8 9 10 11 12 13 14 15 16 17 18 19 20 21 22 23 24 25 26 27 28 29 30 31 32 33 34 35 36 37 38 39 40 41 42 43 44 45 46 47 48 49 50
000
ASUS43 KLMK 041910
RWRKY
KENTUCKY REGIONAL WEATHER ROUNDUP
NATIONAL WEATHER SERVICE LOUISVILLE KY
200 PM EST SUN DEC 04 2016

NOTE "FAIR" INDICATES FEW OR NO CLOUDS BELOW 12,000 FEET
WITH NO SIGNIFICANT WEATHER AND/OR OBSTRUCTIONS TO VISIBILITY.

KYZ001>023-026-027-061>063-070>075-042000-
WESTERN AND SOUTH CENTRAL KENTUCKY

CITY           SKY/WX    TMP DP  RH WIND       PRES   REMARKS
PADUCAH        CLOUDY    45  42  89 SW5       29.94F FOG
HENDERSON      CLOUDY    45  39  81 S7        29.93F
OWENSBORO      LGT RAIN  45  43  93 S7        29.94F FOG
HOPKINSVILLE   DRIZZLE   46  46 100 CALM      29.93F FOG
BOWLING GREEN  CLOUDY    47  44  90 S5        29.94F
GLASGOW        CLOUDY    45  45 100 SE7       29.93F
$$

KYZ024-025-028>034-038-045-046-053-042000-
NORTH CENTRAL KENTUCKY

CITY           SKY/WX    TMP DP  RH WIND       PRES   REMARKS
LOUISVILLE/SDF CLOUDY    49  39  68 S12       29.94F
LOUISVILLE/LOU CLOUDY    49  39  68 S8        29.95F
FORT KNOX      CLOUDY    45  43  93 SE7       29.91F FOG
$$

KYZ035>037-039>044-047>052-055>060-089>105-042000-
NORTHEAST KENTUCKY

CITY           SKY/WX    TMP DP  RH WIND       PRES   REMARKS
LEXINGTON      CLOUDY    47  36  65 SE12      29.96F
COVINGTON      CLOUDY    44  32  62 E9        29.95F
FRANKFORT      CLOUDY    48  36  63 SE8       29.95F
$$

KYZ054-064>069-076>088-106>120-042000-
SOUTHEAST KENTUCKY

CITY           SKY/WX    TMP DP  RH WIND       PRES   REMARKS
JACKSON        CLOUDY    42  34  73 VRB3      30.00F
LONDON         LGT RAIN  44  41  89 SE7       29.98F FOG
SOMERSET       LGT RAIN  43  43 100 SE7       29.98F
MIDDLESBORO    RAIN      44  43  97 CALM      30.02F
MONTICELLO     LGT RAIN  45  43  93 VRB7      29.97F
$$





USA.gov is the U.S. government's official web portal to all federal, state and local government web resources and services.